www.pogodaiklimat.ru

Погода и климат >> Архив погоды >> Великобритания >> Томастаун


ПОГОДА в Томастауне

  • Прогноз погоды в Томастауне
  • Монитор погоды в Томастауне

АРХИВ ПОГОДЫ в Томастауне

Время (UTC), дата Ветер
(напр.,м/с)
 
Видим.   Явления Облачность Т
(С)
Тd
(С)
f
(%)
Тe
(С)
Тes
(С)
Комфортность P
(гПа)
Po
(гПа)
Тmin
(С)
Tmax
(С)
R
(мм)
R24
(мм)
S
(см)
10 17.06 Ю 8
{14}
17 км слаб. ливневой дождь н/о +12.9 +10.1 83 +10 +10 1006.8 998.2
11 17.06 ЮЗ 6 45 км в посл. час дождь н/о +15.4 +11.2 76 +14 +14 1007.1 998.5
12 17.06 З 5 8000 м сильн. ливневой дождь н/о +11.5 +9.7 89 +9 +9 1008.0 999.3 3
13 17.06 ЮЗ 4 9000 м сильн. ливневой дождь н/о +13.0 +10.7 86 +11 +11 1008.4 999.8
14 17.06 ЮЗ 4 45 км в посл. час дождь н/о +12.8 +11.5 92 +11 +11 1009.1 1000.5
15 17.06 З 2 24 км ливневой дождь н/о +12.0 +9.8 86 +11 +11 1009.4 1000.7
16 17.06 З 3 10 км в посл. час дождь н/о +12.7 +10.3 85 +11 +11 1009.4 1000.8
17 17.06 ЮЗ 3 35 км в посл. час дождь н/о +13.2 +11.5 89 +12 +12 1009.7 1001.1
18 17.06 СЗ 2 10 км ливневой дождь н/о +12.4 +11.1 92 +11 +11 1009.8 1001.1 +16.1 9
19 17.06 ЮВ 1 50 км в посл. час дождь н/о +13.3 +11.6 89 +13 +13 1009.7 1001.1
20 17.06 ЮЗ 2 50 км н/о +13.8 +10.8 82 +13 +13 1010.1 1001.5
21 17.06 ЮЗ 2 50 км н/о +12.8 +10.2 84 +12 +12 1010.4 1001.8
22 17.06 ЮЗ 4 45 км н/о +11.9 +9.9 88 +10 +10 1010.7 1002.1
23 17.06 ЮЗ 3 45 км н/о +11.4 +9.5 88 +9 +9 1011.0 1002.3
00 18.06 Ю 3 45 км н/о +11.2 +9.4 89 +10 +10 1011.0 1002.3 0.0
01 18.06 Ю 3 35 км н/о +10.5 +9.2 92 +9 +9 1010.9 1002.1
02 18.06 ЮЗ 3 35 км н/о +10.2 +9.0 92 +8 +8 1010.7 1002.0
03 18.06 ЮЗ 3 40 км н/о +10.2 +8.7 90 +8 +8 1010.4 1001.7
04 18.06 ЮЗ 3 40 км н/о +10.1 +8.1 87 +8 +8 1010.5 1001.8
05 18.06 ЮЗ 1 35 км н/о +9.7 +7.8 88 +9 +9 1010.9 1002.2
06 18.06 ЮЗ 3 35 км н/о +10.6 +8.0 84 +9 +9 1011.0 1002.2 +9.4 0.0
07 18.06 ЮЗ 4 35 км н/о +10.8 +8.8 87 +8 +8 1011.2 1002.5
08 18.06 ЮЗ 5 50 км н/о +12.4 +9.1 80 +10 +10 1011.2 1002.5
09 18.06 ЮЗ 4 45 км н/о +12.8 +9.2 79 +11 +11 1011.2 1002.5
10 18.06 ЮЗ 5 40 км н/о +15.1 +10.8 75 +14 +14 1011.0 1002.5
11 18.06 З 4 40 км н/о +14.7 +9.8 72 +13 +13 1011.0 1002.4
12 18.06 З 4 50 км н/о +15.5 +9.6 68 +15 +15 1010.8 1002.2
13 18.06 СЗ 3 35 км н/о +15.3 +10.3 72 +15 +15 1010.6 1002.0
14 18.06 ЮЗ 2 45 км н/о +15.7 +9.3 66 +16 +16 1010.5 1001.9
15 18.06 З 3 50 км н/о +15.9 +10.0 68 +15 +15 1010.4 1001.8
16 18.06 СЗ 2 45 км н/о +16.6 +11.8 73 +17 +17 1010.0 1001.4
17 18.06 СЗ 4 40 км н/о +14.8 +10.4 75 +14 +14 1009.9 1001.3
18 18.06 С 3 50 км н/о +15.3 +10.9 75 +15 +15 1009.8 1001.2 +18.2
19 18.06 СВ 2 12 км ливневой дождь н/о +14.7 +11.8 83 +14 +14 1009.8 1001.2
20 18.06 СЗ 1 35 км в посл. час дождь н/о +13.6 +11.1 85 +14 +14 1010.0 1001.4
21 18.06 С 2 25 км н/о +11.9 +10.0 88 +11 +11 1010.0 1001.3
22 18.06 С 1 21 км н/о +10.7 +9.5 92 +10 +10 1010.1 1001.4
23 18.06 Ю 1 18 км н/о +10.6 +9.9 95 +11 +11 1009.9 1001.2
00 19.06 Ю 2 10 км н/о +9.8 +9.3 97 +8 +8 1009.7 1000.9 0.2
01 19.06 ЮЗ 4 35 км в посл. час туман н/о +9.4 +8.8 96 +7 +7 1009.1 1000.4
02 19.06 ЮВ 1 29 км н/о +8.4 +7.9 97 +7 +7 1009.0 1000.2
03 19.06 Ю 2 15 км н/о +7.6 +7.0 96 +6 +6 1008.8 1000.0
04 19.06 ЮВ 2 15 км н/о +7.6 +7.2 97 +6 +6 1008.5 999.7
05 19.06 ЮВ 2 18 км н/о +8.1 +7.8 98 +6 +6 1008.4 999.6
06 19.06 Ю 2 24 км н/о +9.3 +9.0 98 +8 +8 1008.3 999.6 +7.1 0.2
07 19.06 Ю 3 45 км н/о +11.0 +9.9 93 +9 +9 1008.2 999.6
08 19.06 Ю 3 30 км н/о +11.0 +9.8 92 +9 +9 1008.2 999.5
09 19.06 ЮЗ 3 50 км н/о +12.3 +10.3 88 +11 +11 1007.7 999.1
10 19.06 ЮЗ 4 50 км н/о +13.7 +9.3 75 +12 +12 1007.3 998.8
11 19.06 СЗ 1 35 км н/о +14.8 +10.9 77 +15 +15 1007.2 998.7
12 19.06 З 4 45 км в посл. час дождь н/о +14.7 +9.9 73 +14 +14 1007.1 998.5 0.0
13 19.06 З 3 50 км в посл. час дождь н/о +15.0 +10.4 74 +14 +14 1007.1 998.5
14 19.06 З 4 35 км н/о +16.8 +11.1 69 +16 +16 1006.7 998.2
15 19.06 СЗ 3 50 км в посл. час дождь н/о +14.5 +10.8 78 +14 +14 1006.5 997.9
16 19.06 СЗ 3 35 км в посл. час дождь н/о +14.5 +11.6 83 +14 +14 1006.3 997.8
17 19.06 З 5 50 км н/о +14.0 +9.1 72 +12 +12 1006.1 997.5
18 19.06 ЮЗ 3 45 км в посл. час дождь н/о +12.5 +11.2 92 +11 +11 1006.2 997.6 +17.2 1
19 19.06 ЮЗ 3 45 км слаб. ливневой дождь н/о +11.8 +10.6 92 +10 +10 1006.3 997.7
20 19.06 З 4 50 км слаб. ливневой дождь н/о +10.6 +9.4 92 +8 +8 1006.8 998.1
21 19.06 ЮЗ 1 50 км в посл. час дождь н/о +10.2 +9.3 94 +11 +11 1007.1 998.4
22 19.06 ЮЗ 2 14 км слаб. ливневой дождь н/о +10.1 +9.0 93 +8 +8 1007.3 998.6
23 19.06 ЮЗ 3 45 км в посл. час дождь н/о +9.6 +8.5 93 +7 +7 1007.4 998.6
00 20.06 СЗ 1 35 км н/о +8.6 +7.4 92 +8 +8 1007.6 998.9 0.6
01 20.06 Ю 2 29 км н/о +8.5 +7.6 94 +7 +7 1007.7 999.0
02 20.06 Ю 3 29 км в посл. час дождь н/о +8.2 +7.2 93 +6 +6 1007.8 999.0
03 20.06 ЮЗ 2 25 км в посл. час дождь н/о +7.9 +7.0 94 +6 +6 1007.8 999.0
04 20.06 Ю 2 35 км в посл. час дождь н/о +7.7 +6.6 93 +6 +6 1007.9 999.1
05 20.06 Ю 2 40 км н/о +7.3 +6.6 95 +5 +5 1008.2 999.4
06 20.06 ЮЗ 2 40 км н/о +8.2 +7.3 94 +7 +7 1008.4 999.7 +6.8 0.6
07 20.06 З 4 50 км в посл. час дождь н/о +9.4 +7.8 90 +7 +7 1008.7 1000.0
08 20.06 З 4 45 км н/о +10.6 +7.7 82 +8 +8 1009.1 1000.4
09 20.06 СЗ 4 8000 м ливневой дождь н/о +9.9 +8.4 90 +7 +7 1009.5 1000.8
10 20.06 ЮЗ 4 40 км в посл. час дождь н/о +11.4 +9.2 86 +9 +9 1009.7 1001.0
11 20.06 З 4 40 км в посл. час дождь н/о +12.5 +8.7 78 +11 +11 1009.9 1001.2
12 20.06 З 3 35 км в посл. час дождь н/о +14.7 +9.4 71 +14 +14 1010.0 1001.4 2
13 20.06 З 3 50 км н/о +13.5 +7.3 66 +12 +12 1010.2 1001.6
14 20.06 З 3 35 км в посл. час дождь н/о +13.3 +8.5 73 +12 +12 1010.5 1001.9
15 20.06 ЮЗ 4 50 км слаб. ливневой дождь н/о +12.2 +8.5 78 +10 +10 1010.8 1002.1
16 20.06 СЗ 4 40 км в посл. час дождь н/о +13.3 +6.8 65 +12 +12 1010.6 1002.0
17 20.06 З 4 50 км н/о +13.1 +6.6 65 +12 +12 1011.0 1002.4
18 20.06 З 2 50 км слаб. ливневой дождь н/о +13.0 +7.7 70 +12 +12 1011.2 1002.5 +14.7 2
19 20.06 З 4 50 км в посл. час дождь н/о +12.4 +6.4 67 +11 +11 1011.7 1003.0
20 20.06 ЮЗ 2 45 км в посл. час дождь н/о +10.9 +8.6 86 +10 +10 1012.3 1003.6
21 20.06 З 2 50 км н/о +10.0 +7.6 85 +8 +8 1012.9 1004.1
22 20.06 З 2 45 км н/о +8.8 +6.8 87 +7 +7 1013.3 1004.5
23 20.06 З 2 45 км н/о +8.7 +6.6 87 +7 +7 1013.8 1005.0
00 21.06 З 3 50 км в посл. час дождь н/о +8.8 +7.0 88 +7 +7 1014.1 1005.3 0.4
01 21.06 З 3 30 км в посл. час дождь н/о +8.5 +7.4 93 +6 +6 1014.5 1005.7
02 21.06 ЮЗ 3 40 км в посл. час дождь н/о +7.7 +6.9 95 +5 +5 1014.8 1005.9
03 21.06 ЮЗ 2 30 км н/о +7.1 +6.5 96 +5 +5 1015.2 1006.3
04 21.06 Ю 2 18 км слаб. ливневой дождь н/о +7.6 +7.2 97 +6 +6 1015.5 1006.7
05 21.06 ЮЗ 3 40 км в посл. час дождь н/о +8.4 +7.6 95 +6 +6 1016.0 1007.2
06 21.06 З 3 40 км н/о +8.8 +7.8 93 +6 +6 1016.5 1007.7 +7.0 0.4
07 21.06 ЮЗ 2 45 км н/о +10.7 +8.7 87 +9 +9 1017.0 1008.3
08 21.06 ЮЗ 3 29 км н/о +11.8 +8.8 82 +10 +10 1017.5 1008.8
09 21.06 З 4 40 км слаб. ливневой дождь н/о +11.5 +7.8 78 +9 +9 1017.9 1009.2
10 21.06 ЮЗ 3 45 км в посл. час дождь н/о +14.5 +7.3 62 +14 +14 1018.0 1009.3
11 21.06 ЮЗ 2 45 км н/о +13.9 +8.0 68 +13 +13 1018.3 1009.6
12 21.06 ЮЗ 2 40 км н/о +16.2 +8.2 59 +17 +17 1018.5 1009.8 0.0
13 21.06 ЮЗ 3 45 км н/о +14.2 +7.2 63 +14 +14 1019.0 1010.3
14 21.06 ЮВ 3 45 км н/о +15.1 +6.9 58 +15 +15 1019.1 1010.4
15 21.06 Ю 2 40 км н/о +15.8 +7.0 56 +16 +16 1019.0 1010.4
16 21.06 Ю 1 45 км н/о +15.9 +7.1 56 +17 +17 1018.9 1010.3
17 21.06 ЮВ 1 40 км н/о +16.0 +8.6 61 +17 +17 1018.9 1010.3
18 21.06 Ю 2 50 км н/о +15.8 +8.3 61 +16 +16 1018.9 1010.2 +16.2 0.0
19 21.06 ЮВ 2 50 км н/о +15.2 +8.9 66 +15 +15 1018.8 1010.1
20 21.06 ЮВ 2 50 км н/о +14.3 +9.0 70 +14 +14 1018.8 1010.1
21 21.06 ЮВ 3 50 км н/о +12.9 +8.1 73 +12 +12 1019.0 1010.3
22 21.06 ЮВ 2 45 км н/о +12.2 +7.8 74 +12 +12 1019.0 1010.2
23 21.06 ЮВ 3 50 км н/о +11.5 +7.9 79 +10 +10 1018.8 1010.1
00 22.06 ЮВ 3 50 км н/о +11.5 +8.5 82 +10 +10 1019.1 1010.4
01 22.06 ЮВ 2 30 км н/о +10.0 +8.5 90 +8 +8 1019.1 1010.3
02 22.06 ЮВ 3 30 км н/о +9.9 +8.9 93 +8 +8 1019.2 1010.4
03 22.06 ЮВ 2 28 км н/о +10.0 +8.9 93 +8 +8 1019.0 1010.2
04 22.06 ЮВ 3 26 км н/о +9.9 +8.9 93 +8 +8 1019.0 1010.2
05 22.06 ЮВ 3 35 км н/о +10.0 +9.1 94 +8 +8 1019.1 1010.3
06 22.06 ЮВ 3 30 км н/о +10.4 +9.4 94 +8 +8 1019.0 1010.2 +9.5
07 22.06 ЮВ 3 30 км н/о +10.9 +9.9 94 +9 +9 1019.1 1010.3
08 22.06 ЮВ 3 30 км н/о +12.0 +10.9 93 +10 +10 1019.2 1010.5
09 22.06 ЮВ 4 35 км н/о +13.7 +11.7 88 +12 +12 1018.9 1010.3
10 22.06 Ю 4 30 км н/о +15.0 +11.5 80 +14 +14 1018.9 1010.2
11 22.06 ЮВ 4 45 км н/о +16.7 +11.3 70 +16 +16 1018.6 1010.0
12 22.06 ЮВ 5 45 км н/о +17.6 +11.1 66 +17 +17 1018.4 1009.8
13 22.06 ЮВ 4 40 км н/о +16.7 +10.1 65 +16 +16 1018.0 1009.4
14 22.06 ЮВ 5 45 км н/о +17.2 +10.5 65 +17 +17 1017.6 1009.1
15 22.06 ЮВ 5 45 км н/о +16.4 +11.1 71 +16 +16 1017.5 1008.9
16 22.06 ЮВ 5 35 км н/о +17.3 +11.5 69 +17 +17 1017.1 1008.5
17 22.06 ЮВ 6 45 км н/о +17.3 +10.8 66 +16 +16 1016.7 1008.2
18 22.06 ЮВ 5 50 км н/о +17.0 +9.9 63 +16 +16 1016.5 1007.9 +18.6
19 22.06 ЮВ 7 40 км н/о +16.1 +9.9 67 +15 +15 1016.5 1007.9
20 22.06 ЮВ 5 50 км н/о +14.7 +8.9 68 +13 +13 1016.7 1008.1
21 22.06 ЮВ 4 50 км н/о +12.9 +8.2 73 +11 +11 1017.1 1008.4
22 22.06 ЮВ 2 50 км н/о +11.6 +7.3 75 +11 +11 1017.6 1008.9
23 22.06 ЮВ 2 50 км н/о +11.1 +6.6 74 +10 +10 1017.6 1008.8
00 23.06 СВ 1 50 км н/о +10.3 +7.3 82 +11 +11 1017.3 1008.5
01 23.06 Ю 1 50 км н/о +10.7 +7.2 79 +11 +11 1017.4 1008.6
02 23.06 В 1 50 км н/о +11.1 +6.4 73 +11 +11 1017.0 1008.2
03 23.06 В 2 50 км н/о +10.7 +7.2 79 +10 +10 1016.8 1008.0
04 23.06 СЗ 1 50 км н/о +10.7 +7.3 79 +11 +11 1016.5 1007.8
05 23.06 В 3 40 км слаб. ливневой дождь н/о +11.3 +7.5 77 +10 +10 1016.3 1007.5
06 23.06 В 1 50 км в посл. час дождь н/о +12.2 +7.9 75 +12 +12 1016.0 1007.3 +10.0 0.0
07 23.06 Ю 1 50 км н/о +12.3 +8.9 80 +12 +12 1015.9 1007.2
08 23.06 ЮВ 2 50 км н/о +14.1 +10.2 77 +14 +14 1016.0 1007.4
09 23.06 ЮВ 2 45 км н/о +15.0 +11.0 77 +15 +15 1016.1 1007.5
10 23.06 В 3 45 км слаб. ливневой дождь н/о +15.7 +11.6 77 +15 +15 1016.0 1007.4
11 23.06 В 4 45 км в посл. час дождь н/о +16.0 +11.2 73 +15 +15 1016.0 1007.4
12 23.06 В 4 40 км слаб. ливневой дождь н/о +17.2 +12.7 75 +17 +17 1015.9 1007.3 0.0
13 23.06 ЮВ 5 45 км в посл. час дождь н/о +18.1 +11.9 67 +18 +18 1015.5 1007.0
14 23.06 ЮВ 6 50 км слаб. ливневой дождь н/о +17.6 +10.6 64 +17 +17 1015.5 1006.9
15 23.06 ЮВ 6 24 км слаб. дождь н/о +16.3 +11.3 72 +15 +15 1016.0 1007.4
16 23.06 ЮВ 4 24 км слаб. дождь н/о +15.5 +11.4 77 +15 +15 1016.1 1007.5
17 23.06 В 4 22 км слаб. дождь н/о +14.8 +11.6 81 +14 +14 1015.9 1007.2
18 23.06 В 4 20 км слаб. дождь н/о +14.0 +11.7 86 +13 +13 1015.5 1006.8 +18.5 0.6
19 23.06 В 4 9000 м дождь н/о +13.3 +12.2 93 +12 +12 1015.9 1007.2
20 23.06 СВ 4 10 км дождь н/о +13.4 +12.5 94 +12 +12 1015.6 1006.9
21 23.06 В 4 17 км в посл. час дождь н/о +13.6 +12.3 92 +12 +12 1015.5 1006.9
22 23.06 В 4 16 км в посл. час дождь н/о +14.0 +12.6 91 +12 +12 1015.4 1006.8
23 23.06 В 3 9000 м слаб. ливневой дождь н/о +13.9 +13.0 94 +13 +13 1015.8 1007.1
00 24.06 В 3 9000 м дождь н/о +13.7 +13.1 96 +13 +13 1015.9 1007.2 3
01 24.06 В 3 10 км слаб. морось н/о +13.6 +13.0 96 +12 +12 1015.8 1007.1
02 24.06 СВ 5 10 км морось н/о +12.9 +12.1 95 +11 +11 1015.4 1006.7
03 24.06 СВ 3 11 км слаб. морось н/о +12.3 +11.7 96 +11 +11 1015.1 1006.4
04 24.06 В 4 14 км в посл. час морось н/о +12.3 +11.8 97 +10 +10 1014.8 1006.1
05 24.06 В 5 10 км н/о +12.4 +11.9 97 +10 +10 1015.0 1006.3
06 24.06 В 4 6000 м слаб. морось н/о +12.4 +12.0 97 +10 +10 1015.1 1006.4 +12.2 5
07 24.06 В 3 4400 м слаб. морось с дождем н/о +12.7 +12.3 97 +11 +11 1015.5 1006.8
08 24.06 СВ 2 6000 м в посл. час дождь н/о +13.1 +12.8 98 +12 +12 1015.9 1007.2

 

Местоположение метеостанции Томастаун (Великобритания): широта 54.33 долгота -7.59 высота над уровнем моря 72 м.

В архиве по умолчанию представлена погода в Томастауне за последнюю неделю. Архивные данные за месяц целиком и за предыдущие месяцы, начиная с января 2011 года, Вы можете получить, выбрав интересующий диапазон дат из раскрывающегося списка и нажав кнопку "Ввод!".


*Определитесь, кто Вы:
робот инопланетянин человек

Внимание! Время в таблицах - всемирное. Для получения местного времени необходимо прибавить поправку, которая равна 0 ч.

Смотрите также архив погоды в соседних городах и на ближайших метеорологических станциях:

Погода в Баллихейзе (Ирландия) (36 км)
Погода в Каследерге (Великобритания) (41 км)
Погода на Финнер-роуд (Ирландия) (46 км)
Погода на Озере Lough Fea (Великобритания) (66 км)
Погода в Гленане (Великобритания) (72 км)
Погода в Муллингаре (Ирландия) (89 км)
Погода в Аэропорту Нок (Ирландия) (93 км)
Погода в Портгленоне (Великобритания) (95 км)
Погода в Белфасте (Великобритания) (95 км)
Погода на Магиллигане (Великобритания) (101 км)

Пояснения к столбцам:

Ветер - указаны скорость ветра в м/с - средняя за 10 мин, порывы в срок и между сроками (в фигурных скобках) и направление, откуда дует ветер: С - северный, СВ - северо-восточный, В - восточный, ЮВ - юго-восточный, Ю - южный, ЮЗ - юго-западный, З - западный, СЗ - северо-западный.
Видимость - горизонтальная дальность видимости в метрах или километрах. При видимости от 1 до 10 км при отсутствии осадков обычно наблюдается дымка, при ухудшении видимости до 1 км и менее - туман. В сухую погоду видимость может ухудшаться дымом, пылью или мглою.
Явления - указаны атмосферные явления, наблюдавшиеся в срок или в последний час перед сроком; фигурными скобками обозначены явления, наблюдавшиеся между сроками (за 1-3 часа до срока); квадратными скобками обозначены град или гололедные отложения с указанием их диаметра в мм.
Облачность - указаны через наклонную черту общая и нижняя облачность в баллах и высота нижней границы облаков в метрах; квадратными скобками обозначены формы облаков: Ci - перистые, Cs - перисто-слоистые, Cc - перисто-кучевые, Ac - высококучевые, As - высокослоистые, Sc - слоисто-кучевые, Ns - слоисто-дождевые, Cu - кучевые, Cb - кучево-дождевые. Подробнее классификацию облаков см. в Атласе облаков (PDF).
T - Температура воздуха - температура, измеренная на высоте 2 м над землей.
Td - Температура точки росы - температура, при понижении до которой содержащийся в воздухе водяной пар достигнет насыщения.
f - Относительная влажность воздуха - влажноcть воздуха, измеренная на высоте 2 м над землей.
Te - Эффективная температура - температура, которую ощущает одетый по сезону человек в тени. Характеристика душности погоды. При расчете учитывается влияние влажности воздуха и скорости ветра на теплоощущения человека.
Tes - Эффективная температура на солнце - температура, которую ощущает человек, с поправкой на солнечный нагрев. Характеристика знойности погоды. Зависит от высоты солнца над горизонтом, облачности и скорости ветра. Ночью, в пасмурную погоду, а также при ветре 12 м/с и более поправка равна нулю.
P - Атмосферное давление - приведенное к уровню моря атмосферное давление.
Po - Атмосферное давление - измеренное на уровне метеостанции атмосферное давление.
Tmin - Минимальная температура - минимум температуры воздуха на высоте 2 м над землей.
Tmax - Максимальная температура - максимум температуры воздуха на высоте 2 м над землей.
R - Количество осадков - Количество выпавших осадков за период времени, мм. При наведении курсора мыши на число - период времени, за который выпало указанное количество осадков.
R24 - Количество осадков - Количество выпавших осадков за 24 часа, мм.
S - Снежный покров - Высота снежного покрова, см. При наведении курсора мыши на число - состояние снежного покрова и степень покрытия местности в баллах.